QPF
0.00 0.00 0.00 0.00 0.00 0.00 0.00 0.00 0.00 0.00 0.00 0.00 0.00 0.00 0.00 0.00 0.00 0.00 0.00 0.00 0.00 0.00 0.00 0.00 0.00 0.00 0.00 0.00 0.00 0.00 0.00 0.00 0.00
0.01 0.00 0.00 0.00 0.00 0.00 0.00 0.00 0.00 0.00 0.00 0.00 0.00 0.00 0.00 0.00 0.00 0.00 0.00 0.00 0.00 0.00 0.00 0.00 0.00 0.00 0.00 0.00 0.00 0.00 0.00 0.00 0.00
0.01 0.01 0.00 0.00 0.00 0.00 0.00 0.00 0.00 0.00 0.00 0.00 0.00 0.00 0.00 0.00 0.00 0.00 0.00 0.00 0.00 0.00 0.00 0.00 0.00 0.00 0.00 0.00 0.00 0.00 0.00 0.00 0.00
0.01 0.02 0.01 0.00 0.00 0.00 0.00 0.00 0.01 0.00 0.00 0.00 0.00 0.00 0.00 0.00 0.00 0.00 0.00 0.00 0.00 0.00 0.00 0.00 0.00 0.00 0.00 0.00 0.00 0.00 0.00 0.00 0.00
0.01 0.01 0.01 0.00 0.00 0.00 0.00 0.00 0.00 0.00 0.00 0.00 0.00 0.00 0.00 0.00 0.00 0.00 0.00 0.00 0.00 0.00 0.00 0.00 0.00 0.00 0.00 0.00 0.00 0.00 0.00 0.00 0.00
0.00 0.00 0.00 0.00 0.00 0.00 0.00 0.00 0.00 0.00 0.00 0.00 0.00 0.00 0.00 0.00 0.00 0.00 0.00 0.00 0.00 0.00 0.00 0.00 0.00 0.00 0.00 0.00 0.00 0.00 0.00 0.00 0.01
0.00 0.00 0.00 0.00 0.00 0.00 0.00 0.00 0.00 0.00 0.00 0.00 0.00 0.00 0.00 0.00 0.00 0.00 0.00 0.00 0.01 0.01 0.00 0.00 0.00 0.01 0.06 0.00 0.03 0.12 0.06 0.01 0.03
0.00 0.00 0.00 0.00 0.00 0.00 0.00 0.00 0.00 0.00 0.00 0.00 0.00 0.00 0.00 0.00 0.00 0.00 0.00 0.00 0.01 0.09 0.05 0.00 0.01 0.11 0.04 0.02 0.03 0.02 0.01 0.03 0.05
0.00 0.01 0.01 0.00 0.00 0.00 0.00 0.00 0.00 0.00 0.00 0.00 0.00 0.00 0.00 0.00 0.00 0.00 0.00 0.03 0.10 0.02 0.07 0.06 0.07 0.06 0.04 0.04 0.02 0.00 0.00 0.03 0.09
0.00 0.00 0.00 0.00 0.00 0.00 0.00 0.00 0.00 0.00 0.00 0.00 0.00 0.00 0.00 0.00 0.00 0.02 0.20 0.14 0.03 0.00 0.01 0.31 0.06 0.11 0.14 0.01 0.01 0.00 0.00 0.01 0.06
0.00 0.00 0.00 0.00 0.00 0.00 0.00 0.00 0.00 0.00 0.00 0.00 0.00 0.00 0.00 0.00 0.00 0.04 0.20 0.07 0.05 0.00 0.03 0.16 0.20 0.20 0.13 0.00 0.00 0.02 0.10 0.08 0.07
0.00 0.00 0.00 0.00 0.00 0.00 0.00 0.00 0.00 0.00 0.00 0.00 0.00 0.00 0.00 0.00 0.00 0.05 0.08 0.02 0.05 0.02 0.03 0.08 0.04 0.02 0.01 0.00 0.00 0.00 0.03 0.03 0.01
0.00 0.00 0.00 0.00 0.00 0.00 0.00 0.00 0.00 0.00 0.00 0.00 0.00 0.00 0.00 0.00 0.00 0.01 0.01 0.04 0.03 0.04 0.03 0.00 0.00 0.00 0.00 0.00 0.00 0.00 0.00 0.00 0.00
0.00 0.00 0.00 0.00 0.00 0.00 0.00 0.00 0.00 0.00 0.00 0.00 0.00 0.00 0.00 0.00 0.00 0.01 0.03 0.04 0.01 0.00 0.00 0.00 0.00 0.00 0.00 0.00 0.00 0.00 0.01 0.03 0.02
0.00 0.00 0.00 0.00 0.00 0.00 0.00 0.00 0.00 0.00 0.00 0.00 0.00 0.00 0.00 0.00 0.00 0.07 0.04 0.01 0.00 0.00 0.00 0.00 0.00 0.00 0.00 0.00 0.00 0.00 0.00 0.00 0.00
0.00 0.00 0.00 0.00 0.00 0.01 0.02 0.01 0.01 0.01 0.00 0.00 0.01 0.02 0.01 0.00 0.00 0.04 0.05 0.01 0.00 0.00 0.00 0.00 0.00 0.00 0.00 0.00 0.00 0.00 0.00 0.00 0.00
0.00 0.00 0.00 0.00 0.00 0.00 0.03 0.03 0.03 0.03 0.03 0.04 0.04 0.06 0.06 0.04 0.03 0.00 0.03 0.02 0.00 0.00 0.00 0.00 0.00 0.00 0.00 0.00 0.00 0.00 0.00 0.00 0.00
0.00 0.00 0.00 0.00 0.00 0.00 0.00 0.02 0.01 0.04 0.05 0.09 0.09 0.12 0.17 0.22 0.19 0.19 0.20 0.12 0.04 0.01 0.00 0.00 0.00 0.00 0.00 0.00 0.00 0.00 0.00 0.00 0.00
0.00 0.00 0.00 0.00 0.00 0.00 0.00 0.00 0.00 0.02 0.06 0.10 0.18 0.17 0.29 0.41 0.43 0.47 0.46 0.37 0.22 0.10 0.09 0.07 0.02 0.00 0.00 0.00 0.00 0.00 0.00 0.00 0.01
0.00 0.00 0.00 0.00 0.00 0.00 0.00 0.00 0.00 0.00 0.03 0.09 0.19 0.15 0.36 0.52 0.55 0.42 0.40 0.50 0.34 0.31 0.28 0.25 0.18 0.14 0.13 0.09 0.05 0.04 0.01 0.03 0.12
MSLP
1004.90 1004.99 1005.84 1005.79 1006.04 1006.74 1007.69 1008.74 1009.56 1010.25 1011.14 1011.84 1012.42 1012.88 1013.40 1013.86 1014.30 1014.79 1015.16 1015.38 1015.66 1015.93 1016.12 1016.16 1016.16 1016.35 1016.47 1016.73 1016.97 1017.17 1017.41 1017.83 1017.93
1005.04 1006.11 1005.62 1005.99 1006.51 1006.58 1007.31 1008.15 1008.76 1009.41 1010.49 1011.24 1011.78 1012.18 1012.76 1013.32 1013.77 1014.17 1014.52 1014.87 1015.20 1015.47 1015.56 1015.68 1015.86 1015.92 1016.29 1016.39 1016.62 1016.81 1017.29 1017.59 1017.71
1006.16 1005.05 1005.05 1005.04 1005.70 1006.34 1006.71 1007.44 1008.40 1009.25 1009.93 1010.29 1010.82 1011.56 1012.09 1012.48 1012.96 1013.50 1013.91 1014.25 1014.66 1014.97 1015.16 1015.42 1015.59 1015.79 1015.97 1016.14 1016.31 1016.56 1016.95 1017.21 1017.41
1006.18 1005.32 1004.32 1004.60 1004.90 1005.73 1006.21 1007.12 1007.91 1008.51 1009.33 1009.87 1010.39 1010.93 1011.44 1011.90 1012.30 1012.82 1013.25 1013.62 1013.98 1014.37 1014.73 1015.01 1015.28 1015.42 1015.65 1015.85 1016.06 1016.23 1016.73 1016.92 1017.15
1006.05 1004.98 1003.93 1004.19 1004.77 1005.27 1006.05 1006.70 1007.46 1007.85 1008.53 1009.13 1009.63 1010.02 1010.63 1011.17 1011.70 1012.23 1012.75 1013.05 1013.38 1013.83 1014.29 1014.53 1014.75 1015.00 1015.21 1015.41 1015.67 1015.93 1016.31 1016.65 1016.77
1005.13 1004.61 1004.36 1004.72 1004.74 1005.04 1005.66 1006.24 1006.74 1007.19 1007.69 1008.16 1008.89 1009.45 1010.03 1010.56 1011.11 1011.59 1011.99 1012.32 1012.64 1013.15 1013.56 1013.94 1014.19 1014.48 1014.77 1014.97 1015.18 1015.52 1015.79 1016.07 1016.33
1005.32 1005.12 1005.06 1004.54 1004.83 1005.05 1005.15 1005.55 1005.94 1006.41 1006.91 1007.47 1008.14 1008.71 1009.22 1009.77 1010.30 1010.76 1011.11 1011.49 1012.03 1012.36 1012.88 1013.24 1013.66 1013.98 1014.25 1014.43 1014.67 1015.01 1015.27 1015.63 1015.90
1005.96 1004.81 1004.96 1004.85 1004.71 1004.92 1004.94 1005.28 1005.54 1005.96 1006.37 1006.79 1007.35 1008.00 1008.62 1008.87 1009.34 1009.93 1010.39 1010.97 1011.46 1011.65 1012.20 1012.58 1012.96 1013.45 1013.74 1013.96 1014.27 1014.52 1014.82 1015.17 1015.56
1006.71 1005.36 1004.88 1005.59 1005.23 1005.27 1004.95 1004.82 1004.91 1005.03 1005.56 1006.01 1006.63 1007.23 1007.61 1008.18 1008.85 1009.14 1009.65 1010.17 1010.60 1010.92 1011.42 1011.83 1012.43 1012.82 1013.12 1013.54 1013.73 1013.85 1014.12 1014.44 1014.93
1007.37 1006.91 1006.50 1006.03 1005.55 1005.01 1004.82 1004.74 1004.43 1004.77 1004.86 1005.44 1006.04 1006.49 1006.90 1007.50 1008.00 1008.41 1009.00 1009.34 1009.86 1010.21 1010.63 1011.32 1011.57 1012.20 1012.72 1012.94 1013.10 1013.26 1013.64 1014.09 1014.43
1007.35 1007.35 1007.06 1006.61 1005.78 1005.17 1004.37 1003.72 1003.90 1004.29 1004.74 1005.19 1005.58 1006.01 1006.37 1006.95 1007.44 1007.92 1008.51 1009.04 1009.39 1009.67 1010.10 1010.55 1010.95 1011.49 1012.05 1012.27 1012.45 1012.76 1013.22 1013.69 1013.92
1007.98 1007.88 1007.56 1006.87 1006.29 1005.48 1004.22 1003.72 1003.81 1004.09 1004.78 1005.14 1005.43 1005.66 1005.96 1006.44 1006.81 1007.41 1007.98 1008.44 1008.91 1009.32 1009.72 1010.19 1010.79 1010.89 1011.37 1011.72 1012.00 1012.25 1012.72 1013.26 1013.76
1008.92 1008.52 1008.06 1007.40 1006.61 1005.82 1005.27 1004.67 1004.27 1004.46 1004.85 1005.15 1005.31 1005.43 1005.60 1005.98 1006.39 1006.82 1007.37 1007.87 1008.54 1008.93 1009.44 1009.64 1010.20 1010.47 1010.76 1011.04 1011.53 1011.96 1012.43 1013.18 1013.54
1009.17 1009.05 1008.60 1007.84 1007.38 1007.21 1006.77 1005.83 1005.27 1005.09 1005.20 1005.20 1004.81 1005.08 1005.47 1005.83 1006.10 1006.43 1006.87 1007.47 1008.14 1008.57 1009.02 1009.50 1009.82 1010.16 1010.41 1010.65 1011.05 1011.75 1012.31 1012.83 1013.35
1010.00 1009.82 1009.18 1008.66 1008.40 1008.17 1007.71 1007.10 1006.63 1006.36 1005.44 1004.88 1005.18 1005.38 1005.60 1005.94 1006.17 1006.36 1006.67 1007.28 1007.92 1008.44 1008.92 1009.25 1009.54 1009.96 1010.09 1010.28 1010.64 1010.87 1011.65 1012.38 1012.83
1010.83 1010.37 1009.97 1009.51 1009.20 1008.81 1008.33 1008.11 1007.94 1007.78 1007.02 1006.43 1005.65 1005.83 1005.96 1006.02 1006.23 1006.70 1006.78 1007.03 1007.82 1008.37 1008.70 1009.01 1009.35 1009.80 1010.22 1010.23 1010.45 1010.83 1011.10 1011.70 1012.39
1011.28 1011.04 1010.72 1010.16 1009.75 1009.29 1008.79 1008.53 1008.19 1008.14 1007.34 1006.63 1006.13 1005.77 1005.86 1005.80 1005.99 1006.35 1006.77 1007.06 1007.59 1008.08 1008.41 1008.66 1009.06 1009.39 1009.60 1010.12 1010.54 1010.66 1010.88 1011.44 1012.17
1011.88 1011.67 1011.13 1010.62 1010.38 1010.05 1009.45 1009.18 1008.62 1007.98 1007.44 1006.90 1006.69 1006.30 1005.62 1005.87 1006.32 1006.53 1006.70 1006.81 1006.97 1007.58 1007.94 1008.16 1008.55 1008.84 1009.43 1009.70 1009.90 1009.72 1010.04 1010.41 1011.10
1012.96 1012.56 1011.88 1011.20 1010.67 1010.24 1009.75 1009.43 1009.15 1008.41 1007.87 1007.15 1006.82 1006.64 1006.55 1007.03 1007.48 1007.78 1008.31 1007.67 1007.11 1007.85 1008.70 1008.79 1008.37 1008.72 1008.91 1008.92 1009.17 1009.45 1009.94 1010.44 1010.42
1013.52 1012.99 1012.39 1011.83 1011.36 1010.66 1009.89 1009.48 1009.18 1008.64 1008.05 1007.57 1007.17 1007.04 1007.13 1007.33 1007.31 1006.85 1006.59 1007.65 1010.14 1009.59 1008.48 1008.80 1008.60 1008.97 1009.29 1008.92 1008.52 1008.92 1009.08 1009.43 1010.10
Thickness
5877 5875 5869 5872 5874 5869 5862 5854 5847 5841 5831 5824 5819 5815 5810 5807 5805 5800 5796 5794 5791 5788 5786 5785 5786 5785 5783 5783 5782 5782 5782 5783 5784
5867 5861 5869 5867 5866 5871 5866 5858 5852 5846 5835 5828 5822 5818 5814 5809 5806 5802 5798 5795 5793 5790 5789 5787 5785 5784 5782 5782 5781 5781 5781 5780 5781
5852 5862 5870 5873 5869 5868 5868 5862 5856 5848 5840 5834 5828 5820 5816 5814 5811 5806 5802 5798 5794 5792 5789 5787 5785 5784 5782 5782 5781 5781 5779 5779 5779
5846 5857 5871 5869 5871 5871 5869 5862 5855 5849 5840 5834 5829 5824 5820 5816 5814 5810 5805 5800 5797 5794 5791 5788 5785 5784 5781 5780 5780 5780 5777 5777 5775
5845 5862 5875 5871 5871 5872 5864 5859 5854 5851 5845 5838 5834 5830 5824 5820 5815 5810 5804 5800 5798 5794 5791 5789 5787 5784 5781 5780 5778 5778 5776 5773 5774
5851 5859 5866 5863 5868 5866 5863 5861 5858 5853 5850 5846 5839 5832 5826 5820 5813 5809 5804 5801 5798 5794 5791 5789 5787 5783 5780 5778 5778 5776 5776 5775 5773
5847 5853 5854 5864 5863 5866 5869 5867 5864 5860 5855 5851 5843 5835 5829 5821 5815 5811 5807 5804 5798 5796 5791 5788 5784 5782 5779 5777 5777 5776 5775 5773 5772
5841 5852 5854 5856 5862 5862 5865 5865 5865 5861 5857 5853 5848 5838 5830 5825 5820 5816 5812 5805 5799 5795 5789 5786 5783 5779 5776 5776 5775 5774 5773 5772 5770
5828 5842 5855 5847 5855 5855 5857 5862 5862 5863 5858 5854 5850 5842 5835 5830 5821 5819 5816 5809 5801 5794 5789 5784 5779 5774 5774 5772 5772 5773 5773 5772 5766
5819 5825 5833 5839 5848 5856 5858 5858 5862 5856 5857 5854 5848 5843 5840 5833 5826 5822 5815 5810 5804 5797 5791 5786 5778 5772 5770 5769 5771 5772 5771 5769 5766
5823 5828 5831 5837 5846 5853 5860 5867 5862 5857 5852 5847 5844 5840 5837 5832 5826 5820 5813 5806 5801 5796 5792 5785 5779 5772 5768 5768 5770 5771 5770 5767 5766
5821 5825 5828 5834 5842 5848 5858 5862 5860 5854 5844 5840 5838 5836 5835 5830 5826 5817 5811 5805 5799 5793 5788 5783 5777 5775 5770 5768 5769 5769 5767 5764 5763
5807 5813 5820 5825 5833 5840 5844 5849 5852 5845 5838 5834 5832 5832 5832 5829 5825 5819 5811 5806 5797 5792 5787 5784 5777 5773 5771 5771 5769 5766 5762 5759 5757
5803 5806 5810 5817 5820 5820 5824 5832 5836 5833 5829 5826 5833 5831 5828 5824 5821 5816 5810 5804 5797 5792 5786 5780 5774 5771 5770 5770 5768 5763 5759 5756 5754
5792 5791 5798 5803 5801 5806 5811 5816 5817 5815 5820 5829 5825 5822 5819 5815 5812 5809 5805 5799 5793 5788 5781 5775 5773 5768 5768 5768 5766 5765 5760 5754 5751
5781 5783 5784 5789 5788 5792 5798 5800 5799 5795 5801 5808 5813 5810 5807 5807 5805 5798 5797 5792 5785 5781 5778 5773 5769 5765 5762 5763 5763 5761 5758 5756 5751
5769 5770 5772 5776 5777 5778 5783 5787 5789 5787 5792 5799 5802 5802 5800 5799 5797 5793 5789 5786 5781 5776 5773 5769 5764 5761 5759 5757 5754 5754 5753 5751 5747
5755 5757 5762 5765 5765 5766 5769 5772 5776 5780 5784 5787 5787 5790 5795 5791 5787 5784 5783 5784 5781 5775 5772 5768 5759 5756 5752 5749 5748 5752 5753 5751 5747
5738 5741 5747 5753 5757 5758 5760 5760 5759 5765 5769 5775 5777 5777 5776 5769 5764 5759 5756 5762 5769 5759 5749 5748 5753 5749 5748 5749 5747 5746 5741 5736 5738
5725 5729 5733 5737 5742 5747 5749 5749 5747 5751 5754 5759 5762 5761 5760 5752 5752 5751 5742 5715 5693 5720 5739 5737 5742 5740 5736 5736 5741 5737 5738 5734 5730